Weather in Naykhin

Russia / Khabarovsk Krai     49°16′52″N   136°27′43″E
temp.,
°C
wind,
m/s
gust,
m/s
humid.,
%
clouds,
%
prec.,
mm/h
press.,
hPa
HPBL,
m
8 august, mon
mon801:00+20ssw51298100 4.8 1000380
04:00+19se3799100 11.8 998249
07:00+19sse2699100 2.6 997209
10:00+19s41199100 6.8 997551
13:00+21ssw589683 2.6 996532
16:00+22sw47939 6.0 994485
19:00+20sw48941 2.0 995244
22:00+18ssw411940 2.6 996220
9 august, tue
tue901:00+16ssw48961 0.0 997141
04:00+14ssw48956 0.0 997148
07:00+15ssw59914 0.0 998201
10:00+20sw59695 0.0 998534
13:00+23sw610575 0.0 9961065
16:00+23ssw611605 0.1 9951300
19:00+19wsw5128349 2.9 995452
22:00+15ssw2292100 5.0 99624
10 august, wed
wed1001:00+15s5129472 0.1 996284
04:00+14ssw5139343 0.1 996344
07:00+14s4109196 0.0 997249
10:00+19s477447 0.1 996519
13:00+20ssw61082100 4.5 994777
16:00+17wsw81390100 11.9 994568
19:00+17sw510845 1.3 996571
22:00+15ssw41090100 1.3 998266
11 august, thu
thu1101:00+14s41095100 0.3 997286
04:00+14ssw5119795 1.4 997415
07:00+14ssw51195100 0.1 998469
10:00+17ssw6986100 0.1 999649
13:00+17ssw6988100 1.4 999846
16:00+18ssw5873100 2.3 999852
19:00+18s48813 0.1 999390
22:00+14s37950 0.4 1000114
12 august, fri
fri1201:00+13s389791 0.1 1001166
04:00+13s389774 0.1 1001174
07:00+13sse259669 0.0 1002160
10:00+18ssw2478100 0.0 1002529
13:00+20w2274100 0.5 1002734
16:00+21wnw1267100 1.1 1002853
19:00+19ssw11846 0.5 100318
22:00+16s229399 0.5 100416